Lid_Strength_Index
-1 -1 -1 -0 -0 -0 -0 0 1 1 1 2 2 2 2 1 1 2 2 2 2 2 2 2 2 2 2 4 5 2 -0 1 3 4 5 5 6 6 7 7 6 7 7 6 5 6 6
-0 -0 -0 -0 -0 -0 -0 0 1 1 2 2 2 2 2 2 2 2 2 2 3 3 3 2 2 2 3 7 2 2 3 3 3 4 5 5 6 6 7 7 7 6 6 6 6 5 6
-0 -0 -0 -0 -0 0 0 1 1 1 1 2 2 2 2 2 2 2 2 3 3 3 2 2 2 3 4 4 2 1 3 3 3 4 5 5 5 6 7 8 6 6 8 7 6 6 7
-0 -0 -0 -0 0 0 1 1 1 1 1 1 1 2 2 2 3 3 3 3 3 3 2 2 2 3 5 1 1 2 3 3 3 3 4 4 4 6 6 6 7 8 8 10 7 8 7
-0 -0 -0 -0 -0 0 1 1 1 1 1 1 1 2 2 3 3 3 3 3 3 3 2 2 3 3 6 1 3 3 3 4 4 4 4 4 5 7 7 9 10 10 11 10 9 8 8
-0 -0 -0 -0 -0 0 1 1 1 1 1 1 2 2 2 3 3 3 4 3 3 2 2 2 3 5 4 5 3 3 3 3 4 5 5 6 7 8 9 9 13 12 11 10 11 9 9
-0 -0 -0 -0 -0 -0 0 0 1 1 1 1 2 2 2 3 3 3 4 3 6 6 4 5 5 5 5 3 3 4 3 4 5 6 8 8 9 11 9 9 10 10 10 11 9 9 10
0 -0 0 -0 -0 -0 -0 0 1 1 1 1 2 2 2 2 3 3 4 4 4 4 8 4 5 5 4 3 6 4 4 6 7 9 9 9 11 8 9 9 10 10 11 11 10 10 10
1 0 0 0 -0 -0 -0 0 1 1 2 2 2 2 2 3 3 4 5 5 3 3 8 7 5 5 4 4 6 6 5 7 8 10 10 11 9 9 10 10 10 11 12 12 12 10 11
2 1 1 0 0 0 0 0 1 1 2 2 2 2 3 3 4 5 6 3 2 2 13 11 7 5 4 4 7 4 6 7 9 10 10 10 9 10 10 11 10 12 11 11 12 12 13
2 1 1 1 1 1 1 1 1 1 2 2 2 3 3 3 5 5 3 3 2 5 18 12 7 5 5 7 8 8 6 7 10 10 9 11 10 10 10 10 9 10 10 11 12 12 13
2 1 1 1 1 1 1 1 1 2 2 2 2 3 3 3 3 2 2 3 4 13 19 12 9 10 9 9 9 8 8 7 8 10 10 10 9 9 9 9 10 10 11 11 12 13 15
3 3 2 2 1 1 1 1 2 2 2 2 3 3 2 2 4 2 3 4 12 16 12 13 11 10 10 11 10 9 10 10 11 13 12 11 11 10 9 10 10 10 11 15 16 16 16
4 3 3 2 2 2 2 2 2 2 2 2 3 3 2 2 2 2 3 9 16 14 14 11 9 10 11 10 10 11 11 12 11 11 12 13 13 10 9 9 10 12 11 15 19 17 15
5 4 3 3 3 3 3 2 2 3 3 3 3 2 3 2 3 2 6 14 14 14 12 11 9 11 11 10 10 11 12 12 11 10 11 12 12 9 9 9 9 12 13 11 13 15 16
5 5 4 3 3 3 3 3 3 3 3 4 2 3 3 1 2 4 9 12 11 11 11 10 12 10 13 11 11 12 12 10 10 10 9 10 13 10 9 9 10 10 10 14 14 18 18
7 5 5 5 4 3 4 4 3 3 4 2 3 7 3 1 1 6 13 11 10 10 10 11 11 11 11 12 11 12 12 10 10 10 10 10 11 12 10 10 10 12 12 12 12 14 17
6 7 5 5 5 4 4 4 4 4 4 3 4 10 2 1 9 9 11 10 9 10 9 10 9 10 11 11 12 12 12 10 9 9 11 10 12 14 12 10 10 10 10 10 14 15 15
5 5 6 7 5 5 4 4 4 5 4 3 7 7 2 3 12 12 9 9 9 10 10 11 11 9 9 11 12 11 11 8 8 9 10 10 12 15 14 11 10 11 11 11 11 12 14
5 5 6 6 6 6 5 5 5 5 4 3 7 13 7 6 7 10 11 11 11 9 10 10 11 9 10 11 10 11 11 9 9 9 8 9 11 13 16 13 11 13 12 11 11 14 14
5 5 5 6 6 6 6 6 5 5 4 4 7 11 9 12 10 10 9 10 12 12 9 9 11 11 11 13 12 12 10 10 10 9 9 9 13 12 11 11 11 11 11 11 13 11 14
5 5 5 6 6 6 6 6 6 5 6 7 11 11 10 9 8 10 10 11 11 10 10 11 12 11 11 12 11 11 11 10 11 10 10 9 13 12 13 11 11 13 11 11 11 11 11
4 5 5 6 6 6 6 6 6 6 6 10 10 9 8 9 9 11 11 10 10 9 9 8 9 10 12 10 9 8 8 8 9 10 11 11 12 15 17 13 13 17 13 12 11 10 11
4 4 4 4 5 6 6 6 6 6 6 8 9 9 10 12 10 10 9 9 10 9 10 8 8 10 8 7 7 8 9 9 9 9 8 11 12 13 17 15 21 13 9 9 11 10 9
3 4 4 4 5 5 5 6 6 6 5 8 8 9 10 14 9 10 9 9 8 8 9 9 8 7 6 8 13 14 15 14 11 10 10 9 12 16 18 18 15 13 11 11 12 12 9
3 3 4 4 4 4 4 5 5 5 4 6 8 8 10 13 13 10 10 9 11 10 10 9 8 7 7 10 14 17 18 15 16 14 9 10 10 14 17 19 20 12 10 8 8 15 8
3 4 4 4 4 4 4 4 4 3 4 6 8 8 11 14 12 11 11 11 8 9 11 11 10 9 7 12 15 16 16 12 17 16 15 14 14 16 16 18 15 10 11 8 16 13 9
3 3 3 4 4 4 4 4 4 4 3 5 7 8 10 14 12 10 10 12 11 10 11 11 10 12 11 14 14 15 15 14 14 12 14 15 16 16 16 18 19 9 11 12 9 10 10
4 3 3 3 3 3 3 3 4 4 3 4 8 6 7 11 12 10 9 9 10 9 12 12 11 11 11 12 13 14 16 14 14 17 11 15 12 14 14 14 9 9 8 8 10 10 11